Regional Weather Roundup
Issued by NWS New Orleans/Baton Rouge, LA

Home | Current Version | Previous Version | Text Only | Print | Product List | Glossary On
Versions: 1 2 3 4 5 6 7 8 9 10 11 12 13 14 15 16 17 18 19 20 21 22 23 24 25 26 27
000
ASUS44 KLIX 251913
RWRLIX
NEW ORLEANS REGIONAL WEATHER ROUNDUP
NATIONAL WEATHER SERVICE NEW ORLEANS LA
200 PM CDT SUN JUN 25 2017

NOTE: "FAIR" INDICATES FEW OR NO CLOUDS BELOW 12,000 FEET WITH NO
      SIGNIFICANT WEATHER AND/OR OBSTRUCTIONS TO VISIBILITY.
      SKY/WX - SKY CONDITION AND SIGNIFICANT WEATHER.
      TMP - AIR TEMPERATURE.     DP    - DEWPOINT TEMPERATURE.
      RH  - RELATIVE HUMIDITY.   PRES  - PRESSURE.
      HI  - HEAT INDEX.          WCI   - WIND CHILL INDEX.

*  THESE STATIONS ARE NOT NWS OR FAA STATIONS AND ARE NOT UNDER
   NWS QUALITY CONTROL.

LAZ038-040-048-061>063-065>067-069-252000-
SOUTHEAST LOUISIANA

CITY           SKY/WX    TMP DP  RH WIND       PRES   REMARKS
N.O. INTL ARPT PTSUNNY   85  74  69 N7G17     30.12F
N.O. LAKEFRONT MOSUNNY   85  77  77 N6        30.12F HX  95
N.O. DOWNTOWN*   N/A     85  75  72 N8          N/A
RESERVE*       MOCLDY    87  75  67 NE10      30.12F HX  96
SLIDELL        PTSUNNY   88  72  58 N14       30.11F
BATON ROUGE    PTSUNNY   86  72  62 NE14      30.13F
BOOTHVILLE     CLOUDY    85  79  82 NE7       30.11F HX  98
BELLE CHASSE   TSTM     N/A N/A N/A E8        30.13R
BOGALUSA*        N/A     87  69  54 NE9       30.15F
GALLIANO*      PTCLDY    87  70  57 NE10      30.12S THUNDER
NEW ROADS*       N/A     84  71  66 E6        30.14F
GONZALES*      MOCLDY    86  74  68 N8        30.10F
HAMMOND*       MOSUNNY   88  68  51 N5        30.13F
HOUMA*         MOSUNNY   77  72  83 E17G23    30.12S
PORT FOURCHON* PTCLDY   N/A N/A N/A VRB5      30.10F

$$

MSZ070-080>082-252000-
SOUTHERN MISSISSIPPI

CITY           SKY/WX    TMP DP  RH WIND       PRES   REMARKS
MCCOMB         PTSUNNY   83  62  49 NE7       30.16F
GULFPORT       MOSUNNY   88  73  61 N9        30.10F HX  95
BILOXI         SUNNY     87  74  65 NE9       30.10F HX  96
PASCAGOULA     PTSUNNY   90  72  55 E6        30.10F HX  97
STENNIS ARPT*  MOSUNNY   88  73  62 NE9       30.11F HX  96

$$

COASTAL OBSERVATIONS
LAKE AND NEARSHORE STATIONS

STATION/POSITION TIME  TEMP    WIND        PRES    WAVE
                       AIR SEA DIR/SP/G            HT/PER
                 (UTC) (F)     (DEG/KT/KT) (MB)    (FT/S)
PASCAGOULA       1848   88      40/  6/  9 1019.2
WAVELAND YACHT   1848   84 83   30/  9/ 11 1019.6
GRAND ISLE       1848   87 84   30/  4/  5 1019.6
SOUTHWEST PASS   1848   84      10/  6/  7   N/A
NEW CANAL        1848   83 83   10/  5/  7 1019.8
SHELL BEACH      1848   83 87   30/  8/ 10 1019.7

OFFSHORE STATIONS

STATION/POSITION TIME  TEMP    WIND        PRES    WAVE
                       AIR SEA DIR/SP/G            HT/PER
                 (UTC) (F)     (DEG/KT/KT) (MB)    (FT/S)
64 S DAUPHIN ISL 1850   83 84  350/  6/  6 1019.5    2/ 6

$$





USA.gov is the U.S. government's official web portal to all federal, state and local government web resources and services.